Location: Arlington
(31.4185°N, 90.5568°W)
Time: 11:45:14
(UTC+00:00)

ISS - Pass Details

Date: 03 October 2021
Orbit: 417 x 423 km, 51.6° (Epoch: 18 October)

Event Time Altitude Azimuth Distance (km) Brightness Sun altitude
Rises 01:18:40 0° 331° (NNW) 2,362 0.6 -20.7°
Reaches altitude 10° 01:21:22 10° 355° (N) 1,497 -0.8 -21.2°
Enters shadow 01:22:00 13° 4° (N) 1,351 -1.2 -21.4°
